User: anonymous   Login
Location: Fiddletown
(38.4917°N, 120.6633°W)
Time: 19:10:22
(UTC-08:00)
Language:

Envisat - Orbit

View from above orbital plane
View from above orbital plane
View from above satellite
View from above satellite

Ground track
Ground track

The orbit data is extracted from the following two-line orbital elements,

1 27386U 02009A   14352.70636917  .00000160  00000-0  67298-4 0  7352
2 27386 098.3603 053.3140 0000698 088.3062 271.8215 14.37767120670099
Epoch (UTC): 18 December 2014 16:57:10
Eccentricity: 0.0000698
inclination: 98.3603°
perigee height: 765 km
apogee height: 766 km
right ascension of ascending node: 53.3140°
argument of perigee: 88.3062°
revolutions per day: 14.37767120
mean anomaly at epoch: 271.8215°
orbit number at epoch: 67009

The dashed part of the orbit path shows where the satellite is in the earth's shadow,  

DLR